User: anonymous   Login
Location: Unspecified
(0.0000°N, 0.0000°E)
Time: 10:33:22
(UTC+00:00)
Language:

USA 245 - Orbit

View from above orbital plane
View from above orbital plane
View from above satellite
View from above satellite

Ground track
Ground track

The orbit data is extracted from the following two-line orbital elements,

1 39232U 13043A   18221.89118090 0.00008800  00000-0  86277-4 0    03
2 39232  97.9065 283.9371 0525834  79.8767 280.1232 14.79038931    04
Epoch (UTC): 09 August 2018 21:23:18
Eccentricity: 0.0525834
inclination: 97.9065°
perigee height: 264 km
apogee height: 1001 km
right ascension of ascending node: 283.9371°
argument of perigee: 79.8767°
revolutions per day: 14.79038931
mean anomaly at epoch: 280.1232°
orbit number at epoch: 0

The dashed part of the orbit path shows where the satellite is in the earth's shadow,  

DLR